Year,Month,Day,Hour,Minute,Value (Times are PST for temperature in C)
2012,07,06,00,00,13.10
2012,07,06,00,01,13.10
2012,07,06,00,02,13.00
2012,07,06,00,03,13.00
2012,07,06,00,04,13.00
2012,07,06,00,05,13.00
2012,07,06,00,06,13.00
2012,07,06,00,07,13.00
2012,07,06,00,08,13.00
2012,07,06,00,09,13.00
2012,07,06,00,10,13.00
2012,07,06,00,11,13.00
2012,07,06,00,12,13.00
2012,07,06,00,13,13.00
2012,07,06,00,14,13.00
2012,07,06,00,15,13.00
2012,07,06,00,16,13.00
2012,07,06,00,17,13.00
2012,07,06,00,18,13.00
2012,07,06,00,19,13.00
2012,07,06,00,20,13.00
2012,07,06,00,21,13.10
2012,07,06,00,22,13.00
2012,07,06,00,23,13.10
2012,07,06,00,24,13.10
2012,07,06,00,25,13.10
2012,07,06,00,26,13.10
2012,07,06,00,27,13.20
2012,07,06,00,28,13.20
2012,07,06,00,29,13.20
2012,07,06,00,30,13.20
2012,07,06,00,31,13.30
2012,07,06,00,32,13.30
2012,07,06,00,33,13.30
2012,07,06,00,34,13.30
2012,07,06,00,35,13.30
2012,07,06,00,36,13.30
2012,07,06,00,37,13.30
2012,07,06,00,38,13.30
2012,07,06,00,39,13.30
2012,07,06,00,40,13.30
2012,07,06,00,41,13.30
2012,07,06,00,42,13.30
2012,07,06,00,43,13.30
2012,07,06,00,44,13.20
2012,07,06,00,45,13.20
2012,07,06,00,46,13.20
2012,07,06,00,47,13.20
2012,07,06,00,48,13.20
2012,07,06,00,49,13.20
2012,07,06,00,50,13.20
2012,07,06,00,51,13.20
2012,07,06,00,52,13.20
2012,07,06,00,53,13.20
2012,07,06,00,54,13.20
2012,07,06,00,55,13.20
2012,07,06,00,56,13.20
2012,07,06,00,57,13.20
2012,07,06,00,58,13.10
2012,07,06,00,59,13.10
2012,07,06,01,00,13.10
2012,07,06,01,01,13.10
2012,07,06,01,02,13.10
2012,07,06,01,03,13.10
2012,07,06,01,04,13.00
2012,07,06,01,05,13.00
2012,07,06,01,06,13.00
2012,07,06,01,07,12.90
2012,07,06,01,08,12.90
2012,07,06,01,09,12.90
2012,07,06,01,10,12.80
2012,07,06,01,11,12.80
2012,07,06,01,12,12.70
2012,07,06,01,13,12.70
2012,07,06,01,14,12.70
2012,07,06,01,15,12.70
2012,07,06,01,16,12.70
2012,07,06,01,17,12.70
2012,07,06,01,18,12.70
2012,07,06,01,19,12.70
2012,07,06,01,20,12.70
2012,07,06,01,21,12.70
2012,07,06,01,22,12.70
2012,07,06,01,23,12.60
2012,07,06,01,24,12.60
2012,07,06,01,25,12.60
2012,07,06,01,26,12.60
2012,07,06,01,27,12.60
2012,07,06,01,28,12.60
2012,07,06,01,29,12.50
2012,07,06,01,30,12.50
2012,07,06,01,31,12.50
2012,07,06,01,32,12.50
2012,07,06,01,33,12.40
2012,07,06,01,34,12.40
2012,07,06,01,35,12.40
2012,07,06,01,36,12.40
2012,07,06,01,37,12.40
2012,07,06,01,38,12.40
2012,07,06,01,39,12.30
2012,07,06,01,40,12.30
2012,07,06,01,41,12.30
2012,07,06,01,42,12.30
2012,07,06,01,43,12.30
2012,07,06,01,44,12.30
2012,07,06,01,45,12.30
2012,07,06,01,46,12.20
2012,07,06,01,47,12.20
2012,07,06,01,48,12.20
2012,07,06,01,49,12.20
2012,07,06,01,50,12.20
2012,07,06,01,51,12.20
2012,07,06,01,52,12.20
2012,07,06,01,53,12.20
2012,07,06,01,54,12.20
2012,07,06,01,55,12.20
2012,07,06,01,56,12.20
2012,07,06,01,57,12.20
2012,07,06,01,58,12.20
2012,07,06,01,59,12.20
2012,07,06,02,00,12.10
2012,07,06,02,01,12.10
2012,07,06,02,02,12.10
2012,07,06,02,03,12.10
2012,07,06,02,04,12.10
2012,07,06,02,05,12.10
2012,07,06,02,06,12.00
2012,07,06,02,07,12.00
2012,07,06,02,08,12.00
2012,07,06,02,09,11.90
2012,07,06,02,10,11.90
2012,07,06,02,11,11.90
2012,07,06,02,12,11.90
2012,07,06,02,13,11.90
2012,07,06,02,14,11.90
2012,07,06,02,15,11.90
2012,07,06,02,16,11.90
2012,07,06,02,17,11.80
2012,07,06,02,18,11.80
2012,07,06,02,19,11.80
2012,07,06,02,20,11.80
2012,07,06,02,21,11.80
2012,07,06,02,22,11.80
2012,07,06,02,23,11.70
2012,07,06,02,24,11.70
2012,07,06,02,25,11.70
2012,07,06,02,26,11.70
2012,07,06,02,27,11.70
2012,07,06,02,28,11.60
2012,07,06,02,29,11.60
2012,07,06,02,30,11.60
2012,07,06,02,31,11.60
2012,07,06,02,32,11.60
2012,07,06,02,33,11.60
2012,07,06,02,34,11.60
2012,07,06,02,35,11.60
2012,07,06,02,36,11.60
2012,07,06,02,37,11.60
2012,07,06,02,38,11.60
2012,07,06,02,39,11.60
2012,07,06,02,40,11.60
2012,07,06,02,41,11.60
2012,07,06,02,42,11.60
2012,07,06,02,43,11.60
2012,07,06,02,44,11.60
2012,07,06,02,45,11.60
2012,07,06,02,46,11.60
2012,07,06,02,47,11.60
2012,07,06,02,48,11.60
2012,07,06,02,49,11.60
2012,07,06,02,50,11.60
2012,07,06,02,51,11.60
2012,07,06,02,52,11.60
2012,07,06,02,53,11.60
2012,07,06,02,54,11.60
2012,07,06,02,55,11.60
2012,07,06,02,56,11.60
2012,07,06,02,57,11.60
2012,07,06,02,58,11.60
2012,07,06,02,59,11.70
2012,07,06,03,00,11.70
2012,07,06,03,01,11.70
2012,07,06,03,02,11.70
2012,07,06,03,06,11.70
2012,07,06,03,07,11.60
2012,07,06,03,08,11.60
2012,07,06,03,09,11.60
2012,07,06,03,10,11.60
2012,07,06,03,11,11.60
2012,07,06,03,12,11.60
2012,07,06,03,13,11.60
2012,07,06,03,14,11.50
2012,07,06,03,15,11.50
2012,07,06,03,16,11.50
2012,07,06,03,17,11.50
2012,07,06,03,18,11.50
2012,07,06,03,19,11.50
2012,07,06,03,20,11.40
2012,07,06,03,21,11.40
2012,07,06,03,22,11.40
2012,07,06,03,23,11.40
2012,07,06,03,24,11.40
2012,07,06,03,25,11.40
2012,07,06,03,26,11.40
2012,07,06,03,27,11.40
2012,07,06,03,28,11.40
2012,07,06,03,29,11.40
2012,07,06,03,30,11.40
2012,07,06,03,31,11.40
2012,07,06,03,32,11.40
2012,07,06,03,33,11.40
2012,07,06,03,34,11.40
2012,07,06,03,35,11.40
2012,07,06,03,36,11.40
2012,07,06,03,37,11.40
2012,07,06,03,38,11.40
2012,07,06,03,39,11.40
2012,07,06,03,40,11.40
2012,07,06,03,41,11.40
2012,07,06,03,42,11.40
2012,07,06,03,43,11.40
2012,07,06,03,44,11.30
2012,07,06,03,45,11.30
2012,07,06,03,46,11.30
2012,07,06,03,47,11.30
2012,07,06,03,48,11.30
2012,07,06,03,49,11.30
2012,07,06,03,50,11.30
2012,07,06,03,51,11.30
2012,07,06,03,52,11.30
2012,07,06,03,53,11.30
2012,07,06,03,54,11.30
2012,07,06,03,55,11.30
2012,07,06,03,56,11.30
2012,07,06,03,57,11.20
2012,07,06,03,58,11.20
2012,07,06,03,59,11.20
2012,07,06,04,00,11.20
2012,07,06,04,01,11.20
2012,07,06,04,02,11.20
2012,07,06,04,03,11.20
2012,07,06,04,04,11.20
2012,07,06,04,05,11.20
2012,07,06,04,06,11.10
2012,07,06,04,07,11.10
2012,07,06,04,08,11.10
2012,07,06,04,09,11.10
2012,07,06,04,10,11.10
2012,07,06,04,11,11.10
2012,07,06,04,12,11.10
2012,07,06,04,13,11.10
2012,07,06,04,14,11.10
2012,07,06,04,15,11.10
2012,07,06,04,16,11.10
2012,07,06,04,17,11.10
2012,07,06,04,18,11.10
2012,07,06,04,19,11.00
2012,07,06,04,20,11.00
2012,07,06,04,21,11.00
2012,07,06,04,22,11.00
2012,07,06,04,23,11.00
2012,07,06,04,24,11.00
2012,07,06,04,25,11.00
2012,07,06,04,26,11.00
2012,07,06,04,27,11.00
2012,07,06,04,28,11.00
2012,07,06,04,29,11.00
2012,07,06,04,30,11.00
2012,07,06,04,31,11.00
2012,07,06,04,32,11.00
2012,07,06,04,33,11.00
2012,07,06,04,34,11.00
2012,07,06,04,35,11.00
2012,07,06,04,36,11.00
2012,07,06,04,37,10.90
2012,07,06,04,38,10.90
2012,07,06,04,39,10.90
2012,07,06,04,40,10.90
2012,07,06,04,41,10.90
2012,07,06,04,42,10.90
2012,07,06,04,43,10.90
2012,07,06,04,44,10.90
2012,07,06,04,45,10.90
2012,07,06,04,46,10.90
2012,07,06,04,47,10.90
2012,07,06,04,48,10.90
2012,07,06,04,49,10.90
2012,07,06,04,50,10.90
2012,07,06,04,51,10.90
2012,07,06,04,52,10.90
2012,07,06,04,53,10.90
2012,07,06,04,54,10.90
2012,07,06,04,55,10.90
2012,07,06,04,56,10.80
2012,07,06,04,57,10.80
2012,07,06,04,58,10.80
2012,07,06,04,59,10.80
2012,07,06,05,00,10.80
2012,07,06,05,01,10.80
2012,07,06,05,02,10.80
2012,07,06,05,03,10.80
2012,07,06,05,04,10.80
2012,07,06,05,05,10.80
2012,07,06,05,06,10.80
2012,07,06,05,07,10.80
2012,07,06,05,08,10.80
2012,07,06,05,09,10.80
2012,07,06,05,10,10.70
2012,07,06,05,11,10.70
2012,07,06,05,12,10.70
2012,07,06,05,13,10.70
2012,07,06,05,14,10.70
2012,07,06,05,15,10.70
2012,07,06,05,16,10.70
2012,07,06,05,17,10.70
2012,07,06,05,18,10.70
2012,07,06,05,19,10.70
2012,07,06,05,20,10.60
2012,07,06,05,21,10.60
2012,07,06,05,22,10.60
2012,07,06,05,23,10.60
2012,07,06,05,24,10.60
2012,07,06,05,25,10.60
2012,07,06,05,26,10.60
2012,07,06,05,27,10.60
2012,07,06,05,28,10.60
2012,07,06,05,29,10.60
2012,07,06,05,30,10.60
2012,07,06,05,31,10.60
2012,07,06,05,32,10.50
2012,07,06,05,33,10.50
2012,07,06,05,34,10.50
2012,07,06,05,35,10.50
2012,07,06,05,36,10.40
2012,07,06,05,37,10.40
2012,07,06,05,38,10.40
2012,07,06,05,39,10.40
2012,07,06,05,40,10.30
2012,07,06,05,41,10.30
2012,07,06,05,42,10.30
2012,07,06,05,43,10.30
2012,07,06,05,44,10.30
2012,07,06,05,45,10.20
2012,07,06,05,46,10.20
2012,07,06,05,47,10.20
2012,07,06,05,48,10.20
2012,07,06,05,49,10.20
2012,07,06,05,50,10.20
2012,07,06,05,51,10.10
2012,07,06,05,52,10.10
2012,07,06,05,53,10.10
2012,07,06,05,54,10.10
2012,07,06,05,55,10.10
2012,07,06,05,56,10.10
2012,07,06,05,57,10.10
2012,07,06,05,58,10.10
2012,07,06,05,59,10.10
2012,07,06,06,00,10.00
2012,07,06,06,01,10.00
2012,07,06,06,02,10.00
2012,07,06,06,03,10.00
2012,07,06,06,04,10.00
2012,07,06,06,05,10.10
2012,07,06,06,06,10.10
2012,07,06,06,07,10.10
2012,07,06,06,08,10.10
2012,07,06,06,09,10.10
2012,07,06,06,10,10.10
2012,07,06,06,11,10.10
2012,07,06,06,12,10.10
2012,07,06,06,13,10.10
2012,07,06,06,14,10.20
2012,07,06,06,15,10.20
2012,07,06,06,16,10.20
2012,07,06,06,17,10.20
2012,07,06,06,18,10.20
2012,07,06,06,19,10.20
2012,07,06,06,20,10.30
2012,07,06,06,21,10.30
2012,07,06,06,22,10.30
2012,07,06,06,23,10.30
2012,07,06,06,24,10.30
2012,07,06,06,25,10.30
2012,07,06,06,26,10.30
2012,07,06,06,27,10.40
2012,07,06,06,28,10.40
2012,07,06,06,29,10.40
2012,07,06,06,30,10.40
2012,07,06,06,31,10.50
2012,07,06,06,32,10.50
2012,07,06,06,33,10.50
2012,07,06,06,34,10.60
2012,07,06,06,35,10.60
2012,07,06,06,36,10.60
2012,07,06,06,37,10.60
2012,07,06,06,38,10.70
2012,07,06,06,39,10.70
2012,07,06,06,40,10.70
2012,07,06,06,41,10.70
2012,07,06,06,42,10.80
2012,07,06,06,43,10.80
2012,07,06,06,44,10.80
2012,07,06,06,45,10.90
2012,07,06,06,46,10.90
2012,07,06,06,47,10.90
2012,07,06,06,48,11.00
2012,07,06,06,49,11.00
2012,07,06,06,50,11.10
2012,07,06,06,51,11.10
2012,07,06,06,52,11.10
2012,07,06,06,53,11.20
2012,07,06,06,54,11.20
2012,07,06,06,55,11.20
2012,07,06,06,56,11.30
2012,07,06,06,57,11.30
2012,07,06,06,58,11.30
2012,07,06,06,59,11.30
2012,07,06,07,00,11.40
2012,07,06,07,01,11.40
2012,07,06,07,02,11.40
2012,07,06,07,03,11.50
2012,07,06,07,04,11.50
2012,07,06,07,05,11.60
2012,07,06,07,06,11.60
2012,07,06,07,07,11.60
2012,07,06,07,08,11.60
2012,07,06,07,09,11.60
2012,07,06,07,10,11.60
2012,07,06,07,11,11.70
2012,07,06,07,12,11.70
2012,07,06,07,13,11.80
2012,07,06,07,14,11.80
2012,07,06,07,15,11.80
2012,07,06,07,16,11.90
2012,07,06,07,17,11.90
2012,07,06,07,18,12.00
2012,07,06,07,19,12.00
2012,07,06,07,20,12.10
2012,07,06,07,21,12.10
2012,07,06,07,22,12.10
2012,07,06,07,23,12.20
2012,07,06,07,24,12.20
2012,07,06,07,25,12.20
2012,07,06,07,26,12.30
2012,07,06,07,27,12.30
2012,07,06,07,28,12.30
2012,07,06,07,29,12.30
2012,07,06,07,30,12.40
2012,07,06,07,31,12.40
2012,07,06,07,32,12.40
2012,07,06,07,33,12.40
2012,07,06,07,34,12.50
2012,07,06,07,35,12.50
2012,07,06,07,36,12.60
2012,07,06,07,37,12.60
2012,07,06,07,38,12.70
2012,07,06,07,39,12.70
2012,07,06,07,40,12.70
2012,07,06,07,41,12.80
2012,07,06,07,42,12.80
2012,07,06,07,43,12.80
2012,07,06,07,44,12.90
2012,07,06,07,45,12.90
2012,07,06,07,46,13.00
2012,07,06,07,47,13.10
2012,07,06,07,48,13.10
2012,07,06,07,49,13.20
2012,07,06,07,50,13.20
2012,07,06,07,51,13.20
2012,07,06,07,52,13.30
2012,07,06,07,53,13.40
2012,07,06,07,54,13.40
2012,07,06,07,55,13.50
2012,07,06,07,56,13.60
2012,07,06,07,57,13.60
2012,07,06,07,58,13.70
2012,07,06,07,59,13.70
2012,07,06,08,00,13.80
2012,07,06,08,01,13.90
2012,07,06,08,02,14.00
2012,07,06,08,03,14.10
2012,07,06,08,04,14.20
2012,07,06,08,05,14.30
2012,07,06,08,06,14.30
2012,07,06,08,07,14.40
2012,07,06,08,08,14.50
2012,07,06,08,09,14.60
2012,07,06,08,10,14.70
2012,07,06,08,11,14.80
2012,07,06,08,12,14.80
2012,07,06,08,13,14.90
2012,07,06,08,14,15.00
2012,07,06,08,15,15.00
2012,07,06,08,16,15.00
2012,07,06,08,17,15.00
2012,07,06,08,18,15.00
2012,07,06,08,19,15.10
2012,07,06,08,20,15.20
2012,07,06,08,21,15.20
2012,07,06,08,22,15.30
2012,07,06,08,23,15.30
2012,07,06,08,24,15.40
2012,07,06,08,25,15.40
2012,07,06,08,26,15.50
2012,07,06,08,27,15.50
2012,07,06,08,28,15.60
2012,07,06,08,29,15.60
2012,07,06,08,30,15.60
2012,07,06,08,31,15.70
2012,07,06,08,32,15.70
2012,07,06,08,33,15.70
2012,07,06,08,34,15.80
2012,07,06,08,35,15.80
2012,07,06,08,36,15.80
2012,07,06,08,37,15.80
2012,07,06,08,38,15.90
2012,07,06,08,39,15.90
2012,07,06,08,40,16.00
2012,07,06,08,41,16.10
2012,07,06,08,42,16.10
2012,07,06,08,43,16.10
2012,07,06,08,44,16.10
2012,07,06,08,45,16.20
2012,07,06,08,46,16.20
2012,07,06,08,47,16.30
2012,07,06,08,48,16.30
2012,07,06,08,49,16.40
2012,07,06,08,50,16.50
2012,07,06,08,51,16.50
2012,07,06,08,52,16.60
2012,07,06,08,53,16.60
2012,07,06,08,54,16.70
2012,07,06,08,55,16.80
2012,07,06,08,56,16.90
2012,07,06,08,57,16.90
2012,07,06,08,58,17.00
2012,07,06,08,59,17.10
2012,07,06,09,00,17.20
2012,07,06,09,01,17.30
2012,07,06,09,02,17.30
2012,07,06,09,03,17.40
2012,07,06,09,04,17.40
2012,07,06,09,05,17.50
2012,07,06,09,06,17.60
2012,07,06,09,07,17.70
2012,07,06,09,08,17.80
2012,07,06,09,09,17.80
2012,07,06,09,10,17.90
2012,07,06,09,11,18.00
2012,07,06,09,12,18.00
2012,07,06,09,13,18.10
2012,07,06,09,14,18.10
2012,07,06,09,15,18.10
2012,07,06,09,16,18.00
2012,07,06,09,17,17.90
2012,07,06,09,18,17.80
2012,07,06,09,19,17.80
2012,07,06,09,20,17.70
2012,07,06,09,21,17.70
2012,07,06,09,22,17.50
2012,07,06,09,23,17.40
2012,07,06,09,24,17.30
2012,07,06,09,25,17.20
2012,07,06,09,26,17.20
2012,07,06,09,27,17.20
2012,07,06,09,28,17.20
2012,07,06,09,29,17.20
2012,07,06,09,30,17.20
2012,07,06,09,31,17.20
2012,07,06,09,32,17.20
2012,07,06,09,33,17.20
2012,07,06,09,34,17.20
2012,07,06,09,35,17.30
2012,07,06,09,36,17.30
2012,07,06,09,37,17.40
2012,07,06,09,38,17.50
2012,07,06,09,39,17.50
2012,07,06,09,40,17.60
2012,07,06,09,41,17.70
2012,07,06,09,42,17.80
2012,07,06,09,43,17.90
2012,07,06,09,44,18.00
2012,07,06,09,45,18.10
2012,07,06,09,46,18.20
2012,07,06,09,47,18.20
2012,07,06,09,48,18.30
2012,07,06,09,49,18.30
2012,07,06,09,50,18.30
2012,07,06,09,51,18.30
2012,07,06,09,52,18.20
2012,07,06,09,53,18.30
2012,07,06,09,54,18.40
2012,07,06,09,55,18.40
2012,07,06,09,56,18.50
2012,07,06,09,57,18.50
2012,07,06,09,58,18.50
2012,07,06,09,59,18.50
2012,07,06,10,00,18.50
2012,07,06,10,01,18.40
2012,07,06,10,02,18.40
2012,07,06,10,03,18.30
2012,07,06,10,04,18.30
2012,07,06,10,05,18.30
2012,07,06,10,06,18.30
2012,07,06,10,07,18.30
2012,07,06,10,08,18.30
2012,07,06,10,09,18.20
2012,07,06,10,10,18.20
2012,07,06,10,11,18.20
2012,07,06,10,12,18.20
2012,07,06,10,13,18.10
2012,07,06,10,14,18.10
2012,07,06,10,15,18.00
2012,07,06,10,16,18.00
2012,07,06,10,17,18.00
2012,07,06,10,18,18.00
2012,07,06,10,19,18.00
2012,07,06,10,20,18.00
2012,07,06,10,21,18.00
2012,07,06,10,22,18.00
2012,07,06,10,23,18.00
2012,07,06,10,24,18.00
2012,07,06,10,25,18.00
2012,07,06,10,26,18.00
2012,07,06,10,27,18.00
2012,07,06,10,28,18.00
2012,07,06,10,29,18.00
2012,07,06,10,30,17.90
2012,07,06,10,31,17.90
2012,07,06,10,32,17.80
2012,07,06,10,33,17.80
2012,07,06,10,34,17.80
2012,07,06,10,35,17.80
2012,07,06,10,36,17.80
2012,07,06,10,37,17.80
2012,07,06,10,38,17.80
2012,07,06,10,39,17.80
2012,07,06,10,40,17.80
2012,07,06,10,41,17.90
2012,07,06,10,42,17.80
2012,07,06,10,43,17.80
2012,07,06,10,44,17.80
2012,07,06,10,45,17.70
2012,07,06,10,46,17.70
2012,07,06,10,47,17.70
2012,07,06,10,48,17.70
2012,07,06,10,49,17.70
2012,07,06,10,50,17.70
2012,07,06,10,51,17.70
2012,07,06,10,52,17.70
2012,07,06,10,53,17.70
2012,07,06,10,54,17.70
2012,07,06,10,55,17.80
2012,07,06,10,56,17.90
2012,07,06,10,57,18.00
2012,07,06,10,58,18.00
2012,07,06,10,59,18.10
2012,07,06,11,00,18.10
2012,07,06,11,01,18.10
2012,07,06,11,02,18.20
2012,07,06,11,03,18.20
2012,07,06,11,04,18.20
2012,07,06,11,05,18.20
2012,07,06,11,06,18.20
2012,07,06,11,07,18.20
2012,07,06,11,08,18.10
2012,07,06,11,09,18.00
2012,07,06,11,10,18.00
2012,07,06,11,11,18.10
2012,07,06,11,12,18.20
2012,07,06,11,13,18.30
2012,07,06,11,14,18.40
2012,07,06,11,15,18.50
2012,07,06,11,16,18.60
2012,07,06,11,17,18.80
2012,07,06,11,18,18.90
2012,07,06,11,19,18.90
2012,07,06,11,20,19.00
2012,07,06,11,21,19.10
2012,07,06,11,22,19.20
2012,07,06,11,23,19.20
2012,07,06,11,24,19.20
2012,07,06,11,25,19.10
2012,07,06,11,26,19.10
2012,07,06,11,27,19.20
2012,07,06,11,28,19.20
2012,07,06,11,29,19.30
2012,07,06,11,30,19.40
2012,07,06,11,31,19.50
2012,07,06,11,32,19.50
2012,07,06,11,33,19.60
2012,07,06,11,34,19.60
2012,07,06,11,35,19.60
2012,07,06,11,36,19.60
2012,07,06,11,37,19.70
2012,07,06,11,38,19.70
2012,07,06,11,39,19.70
2012,07,06,11,40,19.60
2012,07,06,11,41,19.60
2012,07,06,11,42,19.60
2012,07,06,11,43,19.60
2012,07,06,11,44,19.50
2012,07,06,11,45,19.40
2012,07,06,11,46,19.40
2012,07,06,11,47,19.40
2012,07,06,11,48,19.50
2012,07,06,11,49,19.60
2012,07,06,11,50,19.80
2012,07,06,11,51,19.80
2012,07,06,11,52,20.00
2012,07,06,11,53,20.10
2012,07,06,11,54,20.20
2012,07,06,11,55,20.30
2012,07,06,11,56,20.40
2012,07,06,11,57,20.50
2012,07,06,11,58,20.60
2012,07,06,11,59,20.70
2012,07,06,12,00,20.70
2012,07,06,12,01,20.80
2012,07,06,12,02,20.90
2012,07,06,12,03,20.90
2012,07,06,12,04,20.80
2012,07,06,12,05,20.80
2012,07,06,12,06,20.80
2012,07,06,12,07,20.70
2012,07,06,12,08,20.70
2012,07,06,12,09,20.70
2012,07,06,12,10,20.70
2012,07,06,12,11,20.60
2012,07,06,12,12,20.60
2012,07,06,12,13,20.60
2012,07,06,12,14,20.60
2012,07,06,12,15,20.70
2012,07,06,12,16,20.70
2012,07,06,12,17,20.70
2012,07,06,12,18,20.80
2012,07,06,12,19,20.90
2012,07,06,12,20,21.00
2012,07,06,12,21,21.10
2012,07,06,12,22,21.20
2012,07,06,12,23,21.20
2012,07,06,12,24,21.30
2012,07,06,12,25,21.20
2012,07,06,12,26,21.10
2012,07,06,12,27,21.00
2012,07,06,12,28,20.90
2012,07,06,12,29,20.80
2012,07,06,12,30,20.70
2012,07,06,12,31,20.70
2012,07,06,12,32,20.70
2012,07,06,12,33,20.80
2012,07,06,12,34,20.90
2012,07,06,12,35,21.00
2012,07,06,12,36,21.10
2012,07,06,12,37,21.20
2012,07,06,12,38,21.30
2012,07,06,12,39,21.40
2012,07,06,12,40,21.40
2012,07,06,12,41,21.40
2012,07,06,12,42,21.50
2012,07,06,12,43,21.60
2012,07,06,12,44,21.60
2012,07,06,12,45,21.60
2012,07,06,12,46,21.60
2012,07,06,12,47,21.50
2012,07,06,12,48,21.50
2012,07,06,12,49,21.50
2012,07,06,12,50,21.50
2012,07,06,12,51,21.60
2012,07,06,12,52,21.70
2012,07,06,12,53,21.80
2012,07,06,12,54,21.90
2012,07,06,12,55,21.90
2012,07,06,12,56,21.90
2012,07,06,12,57,21.90
2012,07,06,12,58,21.90
2012,07,06,12,59,21.90
2012,07,06,13,00,21.90
2012,07,06,13,01,22.00
2012,07,06,13,02,22.00
2012,07,06,13,03,22.00
2012,07,06,13,04,22.10
2012,07,06,13,05,22.20
2012,07,06,13,06,22.30
2012,07,06,13,07,22.40
2012,07,06,13,08,22.50
2012,07,06,13,09,22.60
2012,07,06,13,10,22.70
2012,07,06,13,11,22.70
2012,07,06,13,12,22.60
2012,07,06,13,13,22.60
2012,07,06,13,14,22.60
2012,07,06,13,15,22.60
2012,07,06,13,16,22.50
2012,07,06,13,17,22.50
2012,07,06,13,18,22.50
2012,07,06,13,19,22.60
2012,07,06,13,20,22.60
2012,07,06,13,21,22.50
2012,07,06,13,22,22.40
2012,07,06,13,23,22.40
2012,07,06,13,24,22.30
2012,07,06,13,25,22.10
2012,07,06,13,26,22.10
2012,07,06,13,27,22.00
2012,07,06,13,28,22.00
2012,07,06,13,29,22.00
2012,07,06,13,30,22.10
2012,07,06,13,31,22.10
2012,07,06,13,32,22.20
2012,07,06,13,33,22.30
2012,07,06,13,34,22.30
2012,07,06,13,35,22.30
2012,07,06,13,36,22.40
2012,07,06,13,37,22.40
2012,07,06,13,38,22.40
2012,07,06,13,39,22.40
2012,07,06,13,40,22.40
2012,07,06,13,41,22.40
2012,07,06,13,42,22.40
2012,07,06,13,43,22.40
2012,07,06,13,44,22.50
2012,07,06,13,45,22.40
2012,07,06,13,46,22.40
2012,07,06,13,47,22.50
2012,07,06,13,48,22.40
2012,07,06,13,49,22.40
2012,07,06,13,50,22.20
2012,07,06,13,51,22.20
2012,07,06,13,52,22.30
2012,07,06,13,53,22.40
2012,07,06,13,54,22.50
2012,07,06,13,55,22.50
2012,07,06,13,56,22.60
2012,07,06,13,57,22.60
2012,07,06,13,58,22.60
2012,07,06,13,59,22.70
2012,07,06,14,00,22.80
2012,07,06,14,01,22.80
2012,07,06,14,02,22.90
2012,07,06,14,03,22.80
2012,07,06,14,04,22.80
2012,07,06,14,05,22.80
2012,07,06,14,06,22.80
2012,07,06,14,07,22.70
2012,07,06,14,08,22.60
2012,07,06,14,09,22.60
2012,07,06,14,10,22.50
2012,07,06,14,11,22.50
2012,07,06,14,12,22.40
2012,07,06,14,13,22.60
2012,07,06,14,14,22.70
2012,07,06,14,15,22.70
2012,07,06,14,16,22.60
2012,07,06,14,17,22.50
2012,07,06,14,18,22.50
2012,07,06,14,19,22.40
2012,07,06,14,20,22.30
2012,07,06,14,21,22.30
2012,07,06,14,22,22.20
2012,07,06,14,23,22.20
2012,07,06,14,24,22.30
2012,07,06,14,25,22.40
2012,07,06,14,26,22.50
2012,07,06,14,27,22.70
2012,07,06,14,28,22.90
2012,07,06,14,29,23.10
2012,07,06,14,30,23.30
2012,07,06,14,31,23.50
2012,07,06,14,32,23.60
2012,07,06,14,33,23.80
2012,07,06,14,34,23.90
2012,07,06,14,35,24.00
2012,07,06,14,36,24.10
2012,07,06,14,37,24.00
2012,07,06,14,38,23.90
2012,07,06,14,39,24.00
2012,07,06,14,40,24.10
2012,07,06,14,41,24.20
2012,07,06,14,42,24.20
2012,07,06,14,43,24.20
2012,07,06,14,44,24.20
2012,07,06,14,45,24.20
2012,07,06,14,46,24.30
2012,07,06,14,47,24.30
2012,07,06,14,48,24.30
2012,07,06,14,49,24.30
2012,07,06,14,50,24.30
2012,07,06,14,51,24.30
2012,07,06,14,52,24.30
2012,07,06,14,53,24.30
2012,07,06,14,54,24.40
2012,07,06,14,55,24.50
2012,07,06,14,56,24.70
2012,07,06,14,57,24.70
2012,07,06,14,58,24.70
2012,07,06,14,59,24.70
2012,07,06,15,00,24.60
2012,07,06,15,01,24.40
2012,07,06,15,02,24.30
2012,07,06,15,03,24.10
2012,07,06,15,04,23.90
2012,07,06,15,05,23.80
2012,07,06,15,06,23.70
2012,07,06,15,07,23.60
2012,07,06,15,08,23.50
2012,07,06,15,09,23.40
2012,07,06,15,10,23.30
2012,07,06,15,11,23.20
2012,07,06,15,12,23.20
2012,07,06,15,13,23.20
2012,07,06,15,14,23.20
2012,07,06,15,15,23.20
2012,07,06,15,16,23.10
2012,07,06,15,17,23.10
2012,07,06,15,18,23.20
2012,07,06,15,19,23.20
2012,07,06,15,20,23.20
2012,07,06,15,21,23.30
2012,07,06,15,22,23.30
2012,07,06,15,23,23.40
2012,07,06,15,24,23.50
2012,07,06,15,25,23.70
2012,07,06,15,26,23.70
2012,07,06,15,27,23.80
2012,07,06,15,28,23.90
2012,07,06,15,29,24.10
2012,07,06,15,30,24.30
2012,07,06,15,31,24.50
2012,07,06,15,32,24.70
2012,07,06,15,33,24.90
2012,07,06,15,34,25.00
2012,07,06,15,35,25.10
2012,07,06,15,36,25.20
2012,07,06,15,37,25.30
2012,07,06,15,38,25.30
2012,07,06,15,39,25.30
2012,07,06,15,40,25.30
2012,07,06,15,41,25.20
2012,07,06,15,42,25.10
2012,07,06,15,43,25.10
2012,07,06,15,44,25.00
2012,07,06,15,45,25.00
2012,07,06,15,46,24.90
2012,07,06,15,47,24.90
2012,07,06,15,48,24.80
2012,07,06,15,49,24.70
2012,07,06,15,50,24.50
2012,07,06,15,51,24.40
2012,07,06,15,52,24.40
2012,07,06,15,53,24.40
2012,07,06,15,54,24.50
2012,07,06,15,55,24.70
2012,07,06,15,56,24.90
2012,07,06,15,57,25.00
2012,07,06,15,58,25.20
2012,07,06,15,59,25.30
2012,07,06,16,00,25.50
2012,07,06,16,01,25.60
2012,07,06,16,02,25.60
2012,07,06,16,03,25.60
2012,07,06,16,04,25.50
2012,07,06,16,05,25.40
2012,07,06,16,06,25.30
2012,07,06,16,07,25.20
2012,07,06,16,08,25.00
2012,07,06,16,09,24.90
2012,07,06,16,10,24.80
2012,07,06,16,11,24.60
2012,07,06,16,12,24.60
2012,07,06,16,13,24.50
2012,07,06,16,14,24.50
2012,07,06,16,15,24.60
2012,07,06,16,16,24.80
2012,07,06,16,17,25.00
2012,07,06,16,18,25.20
2012,07,06,16,19,25.30
2012,07,06,16,20,25.40
2012,07,06,16,21,25.40
2012,07,06,16,22,25.40
2012,07,06,16,23,25.40
2012,07,06,16,24,25.40
2012,07,06,16,25,25.40
2012,07,06,16,26,25.40
2012,07,06,16,27,25.40
2012,07,06,16,28,25.40
2012,07,06,16,29,25.30
2012,07,06,16,30,25.30
2012,07,06,16,31,25.30
2012,07,06,16,32,25.20
2012,07,06,16,33,25.10
2012,07,06,16,34,25.00
2012,07,06,16,35,24.90
2012,07,06,16,36,24.80
2012,07,06,16,37,24.80
2012,07,06,16,38,24.70
2012,07,06,16,39,24.70
2012,07,06,16,40,24.70
2012,07,06,16,41,24.80
2012,07,06,16,42,24.90
2012,07,06,16,43,25.00
2012,07,06,16,44,25.10
2012,07,06,16,45,25.20
2012,07,06,16,46,25.30
2012,07,06,16,47,25.50
2012,07,06,16,48,25.60
2012,07,06,16,49,25.70
2012,07,06,16,50,25.60
2012,07,06,16,51,25.60
2012,07,06,16,52,25.40
2012,07,06,16,53,25.40
2012,07,06,16,54,25.30
2012,07,06,16,55,25.30
2012,07,06,16,56,25.30
2012,07,06,16,57,25.30
2012,07,06,16,58,25.30
2012,07,06,16,59,25.30
2012,07,06,17,00,25.40
2012,07,06,17,01,25.30
2012,07,06,17,02,25.30
2012,07,06,17,03,25.30
2012,07,06,17,04,25.30
2012,07,06,17,05,25.40
2012,07,06,17,06,25.40
2012,07,06,17,07,25.50
2012,07,06,17,08,25.60
2012,07,06,17,09,25.50
2012,07,06,17,10,25.50
2012,07,06,17,11,25.50
2012,07,06,17,12,25.50
2012,07,06,17,13,25.50
2012,07,06,17,14,25.40
2012,07,06,17,15,25.40
2012,07,06,17,16,25.30
2012,07,06,17,17,25.30
2012,07,06,17,18,25.30
2012,07,06,17,19,25.20
2012,07,06,17,20,25.10
2012,07,06,17,21,25.00
2012,07,06,17,22,24.90